Weather reports worldwide

Advertisment
Santiago de Compostela/Labacolla, Spain (8042): temperature & dewpoint: 20.09.2018 17:00:00 - 26.09.2018 17:00:00 (CEST)Santiago de Compostela/Labacolla, Spain (8042): wind speed: 20.09.2018 17:00:00 - 26.09.2018 17:00:00 (CEST)Santiago de Compostela/Labacolla, Spain (8042): wind direction: 20.09.2018 17:00:00 - 26.09.2018 17:00:00 (CEST)Santiago de Compostela/Labacolla, Spain (8042): reduced air pressure: 20.09.2018 17:00:00 - 26.09.2018 17:00:00 (CEST)Santiago de Compostela/Labacolla, Spain (8042): visibility: 20.09.2018 17:00:00 - 26.09.2018 17:00:00 (CEST)
Date & Time tt [°C] td [°C] ff [km/h] ff [kn] dd ppp [hPa] vv [km]
26.09.2018 17:00:00 28,8 10,8 15 8 SW 1021,2 40
26.09.2018 16:00:00 29,6 11,5 13 7 W 1020,9 30
26.09.2018 15:00:00 29,5 10,2 9 5 SW 1020,9 40
26.09.2018 14:00:00 28,4 9,6 5 3 SSW 1021,3 40
26.09.2018 13:00:00 26,9 9,6 9 5 S 1021,4 30
26.09.2018 12:00:00 23,7 11,2 8 4 SE 1021,7 30
26.09.2018 11:00:00 20,8 10,4 9 5 SE 1021,8 40
26.09.2018 10:00:00 17,9 8,5 8 4 SE 1021,7 30
26.09.2018 09:00:00 15,5 7,8 8 4 SE 1021,6 30
26.09.2018 08:00:00 14,3 8,3 4 2 ESE 1021,3 30
26.09.2018 07:00:00 13,9 9,1 4 2 ESE 1021,0 30
26.09.2018 06:00:00 13,8 9,6 5 3 E 1021,0 30
26.09.2018 05:00:00 14,0 10,1 5 3 ESE 1021,1 25
26.09.2018 04:00:00 13,9 10,1 5 3 E 1021,5 30
26.09.2018 03:00:00 14,2 10,2 8 4 ESE 1021,6 30
26.09.2018 02:00:00 14,2 10,1 5 3 ESE 1021,8 2,0
26.09.2018 01:00:00 14,1 9,9 0 0 N 1022,1 30
26.09.2018 00:00:00 14,7 9,9 4 2 ESE 1022,0 30
25.09.2018 23:00:00 15,3 9,9 4 2 ESE 1022,2 30
25.09.2018 22:00:00 15,9 10,2 2 1 E 1021,8 30
25.09.2018 21:00:00 17,9 11,0 4 2 ENE 1021,2 30
25.09.2018 20:00:00 20,8 12,4 4 2 ENE 1020,3 30
25.09.2018 19:00:00 23,1 12,0 8 4 E 1019,9 30
25.09.2018 18:00:00 24,6 12,4 8 4 E 1019,7 30
25.09.2018 17:00:00 25,1 12,8 5 3 E 1020,1 30
25.09.2018 16:00:00 24,6 11,8 9 5 E 1020,6 30
25.09.2018 15:00:00 23,5 11,9 8 4 E 1021,4 30
25.09.2018 14:00:00 22,3 11,3 9 5 E 1022,2 30
25.09.2018 13:00:00 20,9 10,7 9 5 ESE 1022,7 30
25.09.2018 12:00:00 18,7 10,1 9 5 E 1023,4 30
25.09.2018 11:00:00 15,8 8,3 9 5 E 1023,8 30
25.09.2018 10:00:00 13,0 7,4 8 4 E 1023,9 30
25.09.2018 09:00:00 11,1 7,0 5 3 E 1023,8 30
25.09.2018 08:00:00 10,8 7,2 8 4 E 1023,5 30
25.09.2018 07:00:00 11,2 7,7 5 3 ESE 1023,4 30
25.09.2018 06:00:00 11,7 8,2 8 4 E 1023,5 30
25.09.2018 05:00:00 11,9 8,6 9 5 ESE 1023,8 30
25.09.2018 04:00:00 11,5 9,2 4 2 E 1024,5 30
25.09.2018 03:00:00 11,6 9,3 4 2 E 1024,5 30
25.09.2018 02:00:00 11,9 9,6 4 2 E 1025,0 30
25.09.2018 01:00:00 11,8 9,9 4 2 ESE 1025,3 30
25.09.2018 00:00:00 12,7 10,2 5 3 ENE 1025,4 30
24.09.2018 23:00:00 12,9 10,4 4 2 NE 1025,3 30
24.09.2018 22:00:00 13,4 10,6 4 2 NE 1025,1 29
24.09.2018 21:00:00 14,7 11,1 4 2 NE 1024,5 29
24.09.2018 20:00:00 17,2 11,9 8 4 NNE 1024,0 35
24.09.2018 19:00:00 19,8 12,9 9 5 NNE 1023,3 30
24.09.2018 18:00:00 21,1 13,6 9 5 NE 1023,1 30
24.09.2018 17:00:00 22,3 14,0 13 7 NNE 1023,4 40
24.09.2018 16:00:00 22,0 14,1 13 7 N 1024,0 30
24.09.2018 15:00:00 22,2 14,2 9 5 NNE 1024,5 40
24.09.2018 14:00:00 21,7 14,0 9 5 NNE 1025,3 40
24.09.2018 13:00:00 20,6 13,8 8 4 NE 1026,1 30
24.09.2018 12:00:00 19,3 13,5 8 4 ENE 1026,6 30
24.09.2018 11:00:00 17,7 13,8 8 4 ENE 1026,8 40
24.09.2018 10:00:00 17,8 14,1 8 4 ENE 1026,6 30
24.09.2018 09:00:00 16,5 13,8 5 3 ENE 1026,7 30
24.09.2018 08:00:00 16,2 13,8 4 2 ENE 1026,6 30
24.09.2018 07:00:00 16,0 13,8 5 3 NE 1026,4 30
24.09.2018 06:00:00 16,4 14,1 8 4 NE 1026,3 30
24.09.2018 05:00:00 16,4 14,7 8 4 NNE 1026,3 15
24.09.2018 04:00:00 16,5 15,2 9 5 NNE 1026,6 30
24.09.2018 03:00:00 17,0 15,7 8 4 NNE 1026,6 30
24.09.2018 02:00:00 17,8 16,5 8 4 NNE 1026,8 30
24.09.2018 01:00:00 17,8 17,0 9 5 NNE 1026,9 19
24.09.2018 00:00:00 18,2 17,3 5 3 NNE 1027,0 19
23.09.2018 23:00:00 18,4 17,4 8 4 NNE 1027,0 19
23.09.2018 22:00:00 18,9 17,6 8 4 NNE 1026,9 30
23.09.2018 21:00:00 19,2 17,3 16 9 N 1026,4 24
23.09.2018 20:00:00 19,8 17,4 16 9 N 1026,0 30
23.09.2018 19:00:00 20,6 17,6 18 10 N 1025,5 30
23.09.2018 18:00:00 21,7 17,9 22 12 N 1025,1 30
23.09.2018 17:00:00 22,7 18,3 26 14 N 1025,0 15
23.09.2018 16:00:00 26,0 19,5 15 8 N 1024,3 15
23.09.2018 15:00:00 25,6 19,3 8 4 NE 1024,5 30
23.09.2018 14:00:00 24,8 18,5 15 8 N 1024,9 30
23.09.2018 13:00:00 21,2 17,6 18 10 N 1025,5 12
23.09.2018 12:00:00 18,4 16,1 16 9 NNW 1026,1 11
23.09.2018 11:00:00 15,5 15,3 4 2 N 1025,9 2,0
23.09.2018 10:00:00 14,8 14,6 11 6 N 1025,8 -
23.09.2018 09:00:00 14,3 14,1 9 5 NNW 1025,3 0,3
23.09.2018 08:00:00 14,5 14,3 9 5 N 1024,7 0,3
23.09.2018 07:00:00 14,5 14,3 9 5 NW 1024,6 -
23.09.2018 06:00:00 14,7 14,5 8 4 NW 1024,4 -
23.09.2018 05:00:00 15,1 14,9 8 4 NW 1024,4 0,5
23.09.2018 04:00:00 15,7 15,5 5 3 N 1024,7 -
23.09.2018 03:00:00 15,6 15,4 13 7 NNW 1025,0 -
23.09.2018 02:00:00 15,1 14,5 4 2 N 1025,5 7
23.09.2018 01:00:00 16,1 15,7 0 0 N 1025,6 4,4
23.09.2018 00:00:00 16,8 16,0 4 2 NNE 1025,5 9
22.09.2018 23:00:00 17,3 16,2 8 4 N 1025,2 15
22.09.2018 22:00:00 18,5 16,8 13 7 N 1024,8 24
22.09.2018 21:00:00 20,1 17,7 11 6 N 1023,8 30
22.09.2018 20:00:00 23,6 19,3 9 5 N 1022,7 35
22.09.2018 19:00:00 27,1 17,2 11 6 NNW 1021,9 30
22.09.2018 18:00:00 27,7 17,3 13 7 NNW 1021,7 30
22.09.2018 17:00:00 27,5 16,8 9 5 NNW 1022,0 40
22.09.2018 16:00:00 26,9 17,2 9 5 NNW 1022,4 30
22.09.2018 15:00:00 26,1 17,1 8 4 WNW 1022,7 30
22.09.2018 14:00:00 25,1 17,7 9 5 WNW 1023,2 40
22.09.2018 13:00:00 23,8 17,5 8 4 NW 1023,6 30
22.09.2018 12:00:00 22,2 17,5 4 2 SSE 1023,7 26
22.09.2018 11:00:00 19,8 16,7 4 2 ESE 1023,5 15
22.09.2018 10:00:00 16,1 15,9 2 1 SE 1023,8 11
22.09.2018 09:00:00 14,4 14,2 4 2 SE 1023,8 2,0
22.09.2018 08:00:00 14,3 14,1 2 1 SSE 1023,3 0,7
22.09.2018 07:00:00 14,7 14,5 4 2 S 1023,0 -
22.09.2018 06:00:00 15,1 14,9 0 0 N 1022,8 -
22.09.2018 05:00:00 15,4 15,2 2 1 SSE 1022,6 0,2
22.09.2018 04:00:00 16,1 15,9 4 2 SSE 1022,7 -
22.09.2018 03:00:00 16,1 15,9 0 0 N 1022,9 -
22.09.2018 02:00:00 16,4 16,1 2 1 SSE 1023,0 2,3
22.09.2018 01:00:00 16,3 15,7 0 0 N 1023,3 14
22.09.2018 00:00:00 16,8 16,2 0 0 N 1023,2 12
21.09.2018 23:00:00 17,4 16,4 0 0 N 1023,1 12
21.09.2018 22:00:00 17,7 16,5 0 0 N 1022,7 16
21.09.2018 21:00:00 18,0 16,3 8 4 N 1022,4 18
21.09.2018 20:00:00 20,1 16,5 8 4 NW 1021,7 30
21.09.2018 19:00:00 20,3 16,7 8 4 WNW 1021,7 30
21.09.2018 18:00:00 20,3 17,1 4 2 W 1021,6 29
21.09.2018 17:00:00 19,8 17,2 9 5 W 1021,8 30
21.09.2018 16:00:00 18,9 17,2 8 4 SW 1021,9 19
21.09.2018 15:00:00 19,1 17,4 9 5 SSW 1021,8 9
21.09.2018 14:00:00 18,5 17,4 11 6 SSW 1022,1 3,2
21.09.2018 13:00:00 18,6 16,4 11 6 SSW 1022,2 -
21.09.2018 12:00:00 18,0 16,2 11 6 S 1022,1 9
21.09.2018 11:00:00 17,7 15,9 11 6 S 1021,8 16
21.09.2018 10:00:00 17,1 16,0 13 7 S 1021,2 15
21.09.2018 09:00:00 16,7 16,1 9 5 S 1021,0 12
21.09.2018 08:00:00 16,8 15,9 8 4 SSW 1020,8 12
21.09.2018 07:00:00 16,8 15,8 11 6 SW 1020,3 11
21.09.2018 06:00:00 16,7 15,9 9 5 SSW 1020,4 12
21.09.2018 05:00:00 16,5 15,9 8 4 S 1019,8 8
21.09.2018 04:00:00 16,4 15,8 8 4 SSE 1020,0 9
21.09.2018 03:00:00 16,4 15,8 9 5 S 1020,3 11
21.09.2018 02:00:00 16,4 16,1 11 6 SSW 1020,2 4,0
21.09.2018 01:00:00 16,5 15,9 13 7 SW 1020,5 10
21.09.2018 00:00:00 16,7 16,1 11 6 SSW 1020,7 11
20.09.2018 23:00:00 16,7 15,7 9 5 SSW 1020,6 12
20.09.2018 22:00:00 17,0 15,3 9 5 SSW 1020,2 30
20.09.2018 21:00:00 17,3 15,0 13 7 SSW 1019,9 30
20.09.2018 20:00:00 17,8 14,9 11 6 WSW 1019,9 30
20.09.2018 19:00:00 19,7 15,5 13 7 SSW 1019,3 30
20.09.2018 18:00:00 21,3 15,6 13 7 W 1019,0 30
20.09.2018 17:00:00 21,8 14,2 15 8 SSW 1018,9 30

tt = temperature
td = dewpoint
ff = wind speed
dd = wind direction
ppp = reduced air pressure
vv = visibility

Next stations